GFSNGP_250_rhum_210.txt.gz
RH
57 52 54 55 52 52 56 51 40 56 47 57 46 45 54 60 65 64 64 72 79 83 81 82 88 94 86 88 84 72 69 72 79 82 85 90 96 94 85 85 87 89 93 93
78 67 65 59 77 74 64 63 55 68 74 85 78 78 73 72 80 91 94 90 91 95 94 90 90 91 89 87 82 86 88 86 86 88 87 84 83 86 83 71 68 78 86 90
100 90 73 78 100 100 99 99 90 89 100 100 100 100 98 92 87 88 94 98 100 100 100 100 97 90 88 89 90 86 82 82 86 91 90 89 88 81 82 87 89 83 78 75
55 93 81 100 100 100 100 93 85 81 84 86 82 77 75 77 83 86 84 84 86 86 84 87 93 98 99 98 100 100 100 98 92 88 83 83 87 91 100 88 64 58 58 56
62 65 66 70 78 84 100 100 100 100 94 81 76 78 83 81 76 80 88 85 83 88 93 90 89 89 91 93 94 97 96 98 90 91 79 76 94 98 97 96 88 77 67 66
57 57 54 68 74 95 99 94 100 100 99 100 99 91 82 78 84 90 91 95 99 100 100 100 100 100 100 100 100 100 100 100 100 94 84 72 62 60 59 60 55 49 47 45
100 100 90 93 93 92 84 87 88 88 85 86 90 100 100 100 100 100 100 100 100 100 100 100 100 100 100 98 93 90 85 81 77 74 68 60 49 44 44 43 41 42 43 48
94 91 88 100 100 100 100 100 100 100 100 100 99 83 81 83 85 87 88 95 100 100 99 98 99 95 97 95 85 72 58 50 46 44 40 40 39 38 38 39 38 40 44 54
100 100 100 99 99 99 99 98 84 82 91 92 90 100 100 100 86 90 95 84 79 73 73 77 82 80 66 55 46 41 39 38 36 36 38 44 47 49 51 50 41 41 38 31
100 88 89 76 84 90 81 92 98 89 83 86 83 73 77 75 86 87 70 67 65 50 46 46 46 46 39 35 34 36 35 34 33 32 32 35 37 37 37 33 22 14 14 14
92 100 100 100 100 100 90 80 73 65 78 78 83 76 66 63 59 56 56 51 44 40 38 35 34 35 35 32 30 31 33 33 30 26 19 17 15 13 10 9 8 8 8 7
92 98 97 87 86 100 98 74 58 81 93 69 61 54 55 54 48 47 45 42 39 37 34 31 31 30 37 37 26 18 13 12 12 11 10 9 8 8 8 6 6 6 5 5
100 100 100 100 99 75 73 98 96 77 63 56 55 54 51 47 44 44 43 42 40 36 34 37 34 22 18 16 13 10 8 7 7 7 7 6 6 5 5 6 5 4 4 3
80 75 79 93 100 99 89 72 68 65 63 66 62 56 49 44 46 48 46 48 40 28 17 13 13 13 10 8 7 7 6 6 5 5 5 4 3 3 3 3 3 3 3 3
100 93 83 88 92 77 74 68 64 61 52 48 49 48 45 46 52 54 46 19 11 11 11 9 7 8 6 6 5 5 5 5 4 3 3 3 3 3 3 4 4 4 4 3
88 81 80 79 84 83 76 68 63 64 58 45 51 41 30 27 22 15 13 11 9 9 8 7 6 6 5 4 4 3 3 3 3 4 4 4 3 3 2 2 2 2 2 2
100 92 91 91 80 71 70 53 37 33 36 25 19 15 13 13 13 11 10 8 8 8 6 5 5 4 3 3 4 4 4 4 3 3 2 2 2 2 2 2 2 2 2 3
90 82 70 69 67 39 29 28 25 20 19 16 15 14 12 11 10 9 9 8 6 5 4 4 3 4 5 5 4 3 3 3 3 2 2 2 2 3 3 4 4 4 4 4
22 20 19 19 19 17 16 16 16 14 13 11 10 10 9 8 7 6 5 5 4 4 5 5 5 4 3 3 3 3 3 3 3 3 3 4 4 4 4 4 4 4 4 4
16 16 16 16 16 14 13 12 11 10 9 9 8 8 7 6 4 4 5 5 5 6 5 4 4 3 3 3 3 3 3 4 4 4 4 4 4 4 4 4 4 3 3 3
15 14 13 12 11 10 9 8 8 9 9 7 6 6 5 4 5 6 6 5 4 4 4 4 3 3 3 3 4 4 4 4 4 4 4 4 3 4 4 4 4 4 4 4
11 10 10 9 9 8 8 8 8 7 6 6 5 5 7 6 5 4 5 4 4 4 4 4 4 4 4 3 4 4 4 4 4 4 5 5 5 5 5 5 5 5 5 6
8 9 9 9 9 8 7 6 6 5 6 7 7 6 5 5 4 4 5 4 4 4 4 4 4 4 4 4 4 5 6 6 7 7 7 7 7 7 7 7 7 7 6 6
9 8 8 7 6 6 6 6 7 7 6 6 5 5 5 5 4 4 5 5 5 5 5 5 5 5 6 7 8 8 9 10 10 9 9 8 8 8 8 8 7 7 7 7
7 6 6 7 8 8 8 7 6 6 6 6 6 6 5 5 5 5 5 5 5 6 7 8 9 9 10 10 11 11 12 12 11 10 10 9 9 9 8 8 8 8 8 8
8 9 8 8 7 7 7 7 7 7 6 6 6 6 6 6 7 8 9 9 9 10 10 11 12 12 12 12 13 13 12 12 11 10 10 10 10 9 9 9 9 8 8 8
8 7 7 7 8 8 8 8 8 8 8 7 8 9 11 12 11 12 11 12 12 12 13 13 13 13 13 13 14 13 12 12 11 11 11 11 10 10 10 10 10 9 9 9

GFSNGP_250_rhum_213.txt.gz
RH
45 39 42 45 48 49 51 52 47 73 53 59 53 54 57 64 68 70 74 77 74 73 75 83 96 100 100 97 97 96 97 94 98 95 90 90 92 89 91 95 96 99 94 83
82 72 59 53 76 73 60 72 66 64 86 80 84 82 85 90 88 81 81 87 90 86 89 88 82 87 92 96 97 99 100 99 98 97 95 96 99 98 90 89 86 82 77 72
73 80 77 96 100 100 100 100 99 100 100 100 100 100 92 85 85 90 97 99 99 99 99 100 100 100 96 94 96 99 99 100 99 99 99 94 86 79 69 67 66 64 62 61
49 49 37 49 58 85 74 88 88 84 87 92 90 90 93 99 100 99 95 93 97 99 98 96 93 87 83 87 85 86 92 94 95 94 96 95 81 73 74 83 88 90 85 88
93 91 66 75 94 96 87 86 92 96 88 81 81 88 90 86 84 86 90 94 94 87 87 83 78 70 71 76 80 84 87 82 79 78 72 69 71 69 71 76 75 67 63 55
100 100 95 100 100 97 97 96 100 100 100 100 98 100 100 100 100 100 100 100 99 98 97 95 97 99 100 100 99 92 88 84 90 96 88 82 75 62 49 42 40 36 34 34
100 100 100 100 100 100 100 100 100 100 100 100 100 100 100 100 100 100 100 100 100 100 100 100 100 100 100 89 87 86 94 96 94 86 71 56 53 49 45 46 48 47 45 46
100 100 100 100 100 100 100 100 100 100 97 93 99 97 89 91 84 86 95 91 81 79 78 79 74 70 73 72 67 59 59 56 54 56 55 52 48 49 46 43 42 41 42 47
100 99 99 100 100 99 94 97 100 100 100 100 100 100 100 100 100 100 100 99 89 89 85 67 56 53 51 52 49 45 45 48 49 49 49 49 45 43 42 40 38 35 35 35
96 90 100 96 93 92 100 97 81 79 93 81 87 100 94 73 71 78 83 74 68 62 55 53 53 50 45 44 43 41 42 48 49 45 40 40 38 36 36 32 24 17 14 11
88 100 100 96 99 100 93 95 97 100 99 81 85 86 87 84 78 73 74 71 64 64 68 69 63 53 50 45 43 43 38 37 38 36 34 30 24 14 11 11 10 8 8 6
100 100 100 99 90 84 88 77 68 64 66 77 82 73 61 61 63 68 66 59 58 54 57 62 56 51 47 43 36 30 27 24 24 22 14 11 9 8 8 8 7 6 5 5
100 93 88 87 67 75 75 68 66 75 89 66 59 65 67 59 57 64 70 64 54 52 52 48 42 40 36 28 21 15 12 11 11 10 8 8 7 6 5 5 4 3 3 2
100 100 100 99 92 80 81 87 80 81 84 82 80 69 63 72 77 69 62 56 51 46 40 30 24 22 15 14 12 10 9 8 6 6 5 4 3 3 3 2 3 3 2 2
100 100 98 96 93 94 90 89 94 89 84 80 80 83 79 69 55 42 34 28 24 22 19 14 13 12 10 9 8 7 6 5 4 3 3 3 3 3 3 3 3 3 3 2
100 100 100 100 100 100 91 81 74 68 68 69 53 42 33 28 22 19 16 15 13 12 11 8 8 8 7 7 6 5 4 3 3 4 4 4 3 2 2 2 2 2 2 2
89 82 75 71 72 58 53 53 44 34 30 22 19 18 17 14 14 15 13 11 10 8 8 8 8 6 6 5 4 4 5 5 4 3 3 3 2 2 2 2 2 2 3 3
47 43 39 29 24 22 22 18 14 13 13 13 13 14 14 14 13 12 10 10 9 8 8 6 5 4 4 5 5 4 4 3 3 3 3 3 3 3 3 4 4 4 4 4
17 17 16 15 14 15 15 14 14 14 14 14 14 12 11 10 10 9 9 8 6 6 5 4 5 5 4 4 4 4 3 3 3 3 3 3 4 4 4 4 4 4 4 4
16 16 16 16 15 15 15 15 15 15 14 12 11 10 10 8 8 8 6 5 4 5 6 5 4 4 4 4 4 4 4 4 4 4 4 4 4 4 4 4 4 4 4 4
18 17 17 16 16 15 14 12 12 12 11 10 9 8 8 7 5 5 5 5 6 5 5 4 4 4 4 4 4 4 4 4 4 4 5 5 5 6 6 6 6 6 6 6
13 13 12 12 12 11 10 10 10 10 9 9 8 6 5 6 6 7 7 5 5 5 4 4 4 5 4 4 4 4 5 6 7 7 8 8 8 7 7 7 7 7 7 7
10 10 9 9 9 9 9 9 9 8 7 6 6 7 8 8 6 6 6 5 4 4 4 5 5 5 6 6 7 8 8 9 10 10 10 10 10 10 9 8 8 8 7 7
9 9 9 10 9 9 8 7 7 7 8 9 8 7 6 7 6 5 5 5 6 6 7 8 8 9 9 9 10 10 11 11 11 11 11 11 11 10 10 9 9 8 8 8
8 10 9 8 7 7 8 9 10 9 8 7 8 8 7 6 6 8 10 11 11 11 11 11 11 11 11 11 11 12 12 12 12 12 12 11 11 10 10 10 9 9 9 8
7 7 8 8 10 10 9 8 7 8 9 8 7 7 7 8 10 11 11 12 12 12 12 12 12 12 12 12 12 12 12 12 12 12 12 11 11 11 11 11 10 10 10 9
10 11 10 9 8 7 8 9 10 9 8 8 8 10 14 15 14 14 14 14 14 14 13 13 12 12 12 12 12 12 12 12 13 13 12 12 12 11 11 11 11 11 11 10

GFSNGP_250_rhum_216.txt.gz
RH
37 35 32 29 28 29 32 32 30 55 33 48 39 47 56 48 45 47 48 49 56 64 69 76 83 88 92 96 99 100 100 100 100 100 100 99 97 96 97 96 95 91 84 75
56 69 62 52 49 47 47 47 45 44 54 50 52 52 57 62 64 69 78 84 90 97 98 97 96 97 100 100 100 100 100 100 100 100 96 90 86 84 79 75 68 68 69 69
64 47 42 48 88 66 71 71 65 78 81 81 79 80 85 86 88 96 99 99 98 98 98 95 88 82 81 82 80 79 79 81 83 86 88 84 77 74 74 74 76 81 87 94
82 67 62 76 93 75 56 69 84 82 88 91 96 100 100 98 92 82 76 75 75 80 80 77 79 80 86 93 95 96 100 100 96 93 90 90 85 84 81 82 84 77 76 66
100 100 86 96 100 100 99 98 89 81 68 63 62 58 60 61 64 71 79 86 87 88 94 100 100 100 100 100 100 100 100 100 93 92 95 93 88 84 73 64 63 60 57 64
60 69 91 100 100 100 100 100 100 100 100 100 100 100 100 100 100 100 100 100 100 100 100 100 100 100 100 100 100 100 100 100 100 100 95 86 88 92 84 71 68 65 58 54
100 86 80 80 87 99 100 100 100 100 100 100 100 100 100 100 100 100 100 100 100 100 100 100 100 100 100 100 100 100 100 100 100 100 100 100 94 88 79 70 74 76 71 64
100 99 76 100 100 100 80 68 72 86 99 100 100 100 100 100 100 100 100 100 100 100 100 100 100 100 100 100 100 100 100 97 88 80 81 78 75 72 65 60 58 59 58 52
100 100 100 100 100 94 94 100 100 93 74 70 75 79 89 92 90 98 100 98 97 94 93 90 94 100 97 88 88 90 79 69 66 70 76 76 65 58 56 54 49 46 44 36
100 100 100 100 100 97 78 79 87 98 100 100 100 100 100 98 98 98 96 94 100 100 99 94 92 88 83 78 67 64 63 56 49 48 50 50 46 43 41 39 30 22 21 17
100 100 100 100 100 100 100 100 95 79 74 78 82 74 64 56 61 70 83 86 83 85 77 70 65 68 63 57 55 47 43 41 43 50 53 44 33 24 19 15 10 10 10 9
100 100 100 100 100 100 100 99 94 94 94 89 76 66 67 64 69 72 70 67 63 63 59 56 54 53 49 47 46 48 46 44 38 25 16 14 13 12 11 10 8 6 5 4
100 100 100 100 100 100 100 100 99 91 80 82 86 87 91 90 86 78 71 68 66 64 64 67 68 62 51 46 44 38 23 14 13 12 11 10 10 8 7 7 6 5 3 2
100 100 100 100 100 100 100 99 95 99 98 97 96 88 87 87 83 76 74 75 76 76 73 61 48 40 27 18 12 11 12 11 10 11 9 7 6 5 4 4 4 3 3 3
100 100 100 100 100 96 91 91 91 95 99 98 96 85 70 71 75 77 69 66 60 44 32 24 20 14 12 12 11 11 11 9 7 6 5 4 3 3 3 4 4 4 3 2
100 100 100 100 99 95 90 84 77 72 76 76 76 71 64 63 57 43 28 19 16 15 12 12 13 13 12 11 9 8 7 6 5 4 4 4 4 4 3 3 2 2 2 2
100 100 87 78 73 73 72 70 65 69 59 42 47 47 29 20 17 14 13 12 12 12 13 12 11 9 8 7 6 6 5 4 4 5 5 4 3 3 3 3 3 3 3 4
48 36 28 29 28 29 33 34 30 21 16 16 16 15 15 15 14 14 14 14 12 11 9 8 7 7 6 6 4 4 5 5 4 4 3 3 3 3 3 3 4 4 4 3
15 14 14 14 14 14 14 14 14 15 14 14 15 16 15 15 14 13 12 10 9 10 8 7 6 5 4 4 5 5 4 4 4 4 4 4 4 4 4 4 4 4 5 5
15 14 14 13 13 14 16 16 17 17 16 17 16 14 12 11 11 10 10 9 9 8 6 5 5 6 5 5 4 4 4 4 4 4 4 4 4 5 6 6 7 7 7 7
15 15 15 16 15 14 14 14 14 14 13 12 12 12 11 11 10 10 9 8 6 6 7 6 5 5 5 4 4 4 4 5 5 5 6 7 8 8 8 8 8 8 8 8
15 14 13 12 11 10 10 11 12 11 11 11 10 10 10 10 9 7 7 7 8 6 6 6 6 5 5 5 5 5 6 8 8 9 10 10 10 9 9 10 10 9 9 8
11 10 10 10 10 10 10 10 10 9 9 10 10 10 8 7 7 8 9 7 6 6 5 6 6 7 7 7 8 9 10 11 11 12 12 11 11 11 10 10 10 9 9 9
9 9 8 9 9 9 9 9 10 10 10 9 7 8 9 10 8 7 7 7 7 7 9 11 11 10 10 10 11 11 12 12 12 12 12 11 11 11 11 11 10 10 10 9
8 10 10 10 9 9 9 9 8 7 7 9 10 9 8 8 9 9 9 10 11 11 11 11 11 11 11 12 12 12 12 12 12 12 12 12 12 11 11 10 10 10 10 10
11 9 9 8 7 7 7 8 9 10 9 8 8 9 9 9 9 10 12 13 14 13 12 12 12 12 12 12 12 12 12 12 12 12 12 12 12 11 11 10 10 10 10 10
7 8 8 8 10 10 10 9 9 8 9 10 10 10 10 11 12 14 14 14 14 13 13 13 13 12 11 11 11 11 12 12 12 12 12 12 12 12 12 11 9 8 8 9

GFSNGP_250_rhum_219.txt.gz
RH
35 27 35 43 41 38 42 45 49 71 51 45 44 40 38 46 47 41 39 36 34 33 36 42 46 52 60 67 71 78 86 93 98 97 98 100 100 94 83 80 71 69 71 69
50 39 37 34 33 33 36 38 46 49 40 45 40 45 37 34 31 30 32 34 38 46 56 65 70 74 78 80 83 92 98 97 97 94 83 78 77 77 83 92 83 74 68 70
91 71 47 56 63 54 42 47 44 39 42 41 41 42 46 47 51 55 60 67 75 83 89 89 84 85 91 93 92 94 83 71 73 79 93 99 100 91 88 88 93 97 100 100
52 65 73 100 75 69 70 69 70 72 70 65 68 69 71 79 82 88 90 93 96 94 92 95 99 86 77 75 75 88 97 100 100 98 98 99 97 98 100 100 99 98 100 100
61 50 40 69 100 98 94 99 96 95 92 97 90 86 88 92 94 95 94 93 96 98 98 98 95 99 100 100 94 85 83 90 99 100 100 100 100 100 100 100 100 93 88 90
100 100 86 70 57 73 68 55 81 97 98 98 98 98 98 99 100 100 100 97 92 86 82 79 81 82 88 100 100 100 100 100 100 100 100 100 90 88 96 99 98 99 95 85
100 100 100 100 100 100 97 95 96 91 87 81 75 77 84 97 100 98 96 100 100 100 100 100 100 100 100 100 100 100 100 100 100 100 99 100 98 90 87 92 89 91 92 96
100 95 73 100 100 100 100 100 100 100 99 98 100 100 100 100 100 100 100 100 100 100 100 100 100 100 100 100 98 96 97 98 98 99 100 100 97 90 86 83 82 79 72 66
100 100 100 100 97 100 100 100 100 100 100 100 100 100 100 100 100 97 99 100 100 93 85 80 85 89 88 92 94 92 80 72 70 68 67 67 72 75 74 70 60 50 42 39
100 100 100 100 100 100 100 100 100 100 100 100 100 100 100 100 100 100 100 100 97 97 93 85 78 76 77 81 84 82 84 87 80 76 70 55 47 46 43 38 35 34 34 32
100 100 100 100 100 100 100 100 100 100 100 100 100 100 100 100 99 95 97 99 99 99 93 90 95 99 94 89 82 72 67 60 51 48 50 51 49 42 38 36 30 23 14 8
100 100 100 100 100 100 100 100 100 100 100 100 100 100 100 98 98 100 100 99 95 86 84 84 82 82 74 65 55 55 57 58 55 49 44 36 24 17 13 10 9 9 8 7
100 100 100 100 100 100 100 100 100 100 100 100 100 100 98 99 97 91 84 79 91 96 92 85 74 64 63 61 59 57 55 52 42 30 16 11 10 10 10 9 8 7 6 5
100 100 100 100 100 100 100 97 95 100 100 97 97 94 90 85 89 95 88 79 73 66 60 57 58 58 58 58 55 46 35 28 14 11 11 11 9 8 7 6 7 6 4 3
100 100 100 100 100 100 94 90 93 97 96 95 91 87 84 80 75 74 69 64 57 55 60 62 60 58 52 37 19 14 13 13 12 11 10 8 7 6 6 5 4 4 4 3
100 100 100 100 97 89 89 90 89 90 88 85 79 76 79 82 76 65 64 64 60 54 47 42 32 22 16 14 14 13 12 10 9 8 7 6 5 4 4 4 4 4 3 3
99 99 95 96 93 84 81 86 87 80 71 71 73 74 71 73 70 67 64 34 18 16 15 15 15 15 14 13 12 10 8 8 7 6 5 4 5 5 4 4 4 4 3 3
36 44 44 42 44 49 57 67 75 75 64 38 27 36 43 44 37 22 15 14 14 15 15 14 14 12 10 9 8 7 7 6 5 5 5 4 4 4 4 4 4 4 4 4
13 13 13 15 15 14 14 16 16 15 15 16 16 16 16 15 14 14 15 16 14 14 12 10 9 8 7 7 7 6 5 5 5 4 4 4 4 4 4 4 5 6 8 8
17 16 16 16 16 15 15 15 16 15 15 16 16 16 16 14 14 14 12 11 10 9 8 8 7 8 7 6 6 6 5 5 5 4 4 5 5 6 7 8 9 10 10 10
17 17 17 18 17 16 15 16 16 16 16 15 14 14 13 12 10 10 9 8 8 8 8 8 7 6 6 6 6 5 5 5 6 7 7 8 9 9 10 10 10 10 10 9
15 15 16 16 16 15 15 15 15 15 14 13 11 9 9 9 9 8 9 9 9 9 8 8 8 7 6 6 5 6 8 9 10 10 10 10 10 11 12 11 10 10 10 10
14 14 14 14 13 12 12 13 12 11 9 9 10 9 10 10 10 10 11 9 8 8 8 7 7 6 6 6 8 9 10 11 12 12 12 11 12 12 12 11 10 10 10 10
10 10 10 10 11 10 10 9 8 9 10 10 10 11 12 12 10 9 10 11 9 8 8 7 7 8 9 10 11 11 12 12 12 12 12 12 12 12 12 11 11 10 10 11
9 9 10 9 9 9 9 10 11 11 11 11 11 11 9 11 12 10 9 9 9 9 9 10 12 13 13 13 12 12 12 12 12 12 12 13 12 12 12 12 12 11 10 10
11 12 11 10 10 10 11 11 11 10 9 8 11 12 12 10 10 11 11 12 12 12 14 14 15 14 14 13 13 12 11 11 11 11 13 13 12 12 12 12 11 10 9 8
10 10 10 10 10 10 9 9 9 11 12 11 10 9 10 11 11 12 13 14 17 18 17 15 15 14 13 12 11 10 10 10 10 12 13 13 13 13 12 12 10 9 7 7